Time,TemperatureF,DewpointF,PressureIn,WindDirection,WindDirectionDegrees,WindSpeedMPH,WindSpeedGustMPH,Humidity,HourlyPrecipIn,Conditions,Clouds,dailyrainin,SoftwareType,DateUTC
2014-07-24 00:00:00,64.0,64.0,30.04,North,360,4.0,6.0,100,0.00,,---,0.00,VWS V14.01,2014-07-24 04:00:00,
2014-07-24 00:01:00,64.0,64.0,30.04,North,360,1.0,6.0,100,0.00,,---,0.00,VWS V14.01,2014-07-24 04:01:00,
2014-07-24 00:02:00,64.0,64.0,30.04,North,360,3.0,6.0,100,0.00,,---,0.01,VWS V14.01,2014-07-24 04:02:00,
2014-07-24 00:03:00,64.0,64.0,30.04,NE,45,1.0,7.0,100,0.01,,---,0.01,VWS V14.01,2014-07-24 04:03:00,
2014-07-24 00:04:00,64.0,64.0,30.04,NE,45,0.0,0.0,100,0.01,,---,0.01,VWS V14.01,2014-07-24 04:04:00,
2014-07-24 00:09:00,63.0,63.0,30.04,ESE,112,0.0,3.0,100,0.02,,---,0.02,VWS V14.01,2014-07-24 04:09:00,
2014-07-24 00:14:00,63.0,63.0,30.04,North,360,5.0,5.0,100,0.02,,---,0.02,VWS V14.01,2014-07-24 04:14:00,
2014-07-24 00:19:00,63.0,63.0,30.04,NE,45,0.0,3.0,100,0.02,,---,0.02,VWS V14.01,2014-07-24 04:19:00,
2014-07-24 00:24:00,63.0,63.0,30.05,East,90,1.0,4.0,100,0.02,,---,0.02,VWS V14.01,2014-07-24 04:24:00,
2014-07-24 00:29:00,63.0,63.0,30.05,North,360,7.0,8.0,100,0.02,,---,0.02,VWS V14.01,2014-07-24 04:29:00,
2014-07-24 00:34:00,63.0,63.0,30.04,North,360,5.0,5.0,100,0.02,,---,0.02,VWS V14.01,2014-07-24 04:34:00,
2014-07-24 00:39:00,62.0,62.0,30.04,North,360,1.0,6.0,100,0.02,,---,0.02,VWS V14.01,2014-07-24 04:39:00,
2014-07-24 00:44:00,62.0,62.0,30.04,North,360,7.0,7.0,100,0.02,,---,0.02,VWS V14.01,2014-07-24 04:44:00,
2014-07-24 00:49:00,62.0,62.0,30.04,NNE,22,2.0,8.0,100,0.02,,---,0.02,VWS V14.01,2014-07-24 04:49:00,
2014-07-24 00:55:00,62.0,62.0,30.04,NNW,337,3.0,4.0,100,0.02,,---,0.02,VWS V14.01,2014-07-24 04:55:00,
2014-07-24 01:00:00,62.0,62.0,30.04,North,360,0.0,2.0,100,0.02,,---,0.02,VWS V14.01,2014-07-24 05:00:00,
2014-07-24 01:05:00,62.0,62.0,30.04,NNE,22,0.0,3.0,100,0.01,,---,0.02,VWS V14.01,2014-07-24 05:05:00,
2014-07-24 01:10:00,62.0,62.0,30.04,North,360,2.0,4.0,100,0.01,,---,0.02,VWS V14.01,2014-07-24 05:10:00,
2014-07-24 01:15:00,62.0,62.0,30.03,ENE,67,0.0,4.0,100,0.00,,---,0.02,VWS V14.01,2014-07-24 05:15:00,
2014-07-24 01:20:00,62.0,62.0,30.03,NNW,337,5.0,5.0,100,0.00,,---,0.02,VWS V14.01,2014-07-24 05:20:00,
2014-07-24 01:25:00,62.0,62.0,30.03,NNW,337,4.0,4.0,100,0.00,,---,0.02,VWS V14.01,2014-07-24 05:25:00,
2014-07-24 01:30:00,62.0,62.0,30.03,North,360,5.0,5.0,100,0.00,,---,0.02,VWS V14.01,2014-07-24 05:30:00,
2014-07-24 01:35:00,62.0,62.0,30.03,SSW,202,0.0,1.0,100,0.00,,---,0.02,VWS V14.01,2014-07-24 05:35:00,
2014-07-24 01:40:00,62.0,62.0,30.03,NE,45,0.0,5.0,100,0.00,,---,0.02,VWS V14.01,2014-07-24 05:40:00,
2014-07-24 01:45:00,62.0,62.0,30.03,NE,45,0.0,4.0,100,0.00,,---,0.02,VWS V14.01,2014-07-24 05:45:00,
2014-07-24 01:50:00,62.0,62.0,30.03,ESE,112,0.0,5.0,100,0.00,,---,0.02,VWS V14.01,2014-07-24 05:50:00,
2014-07-24 01:56:00,61.0,61.0,30.04,ESE,112,3.0,8.0,100,0.00,,---,0.02,VWS V14.01,2014-07-24 05:56:00,
2014-07-24 02:01:00,61.0,61.0,30.04,SE,135,8.0,10.0,100,0.00,,---,0.02,VWS V14.01,2014-07-24 06:01:00,
2014-07-24 02:06:00,61.0,61.0,30.04,ENE,67,2.0,3.0,100,0.00,,---,0.02,VWS V14.01,2014-07-24 06:06:00,
2014-07-24 02:11:00,61.0,61.0,30.04,ESE,112,0.0,1.0,100,0.00,,---,0.02,VWS V14.01,2014-07-24 06:11:00,
2014-07-24 02:16:00,61.0,61.0,30.04,South,180,0.0,1.0,100,0.00,,---,0.02,VWS V14.01,2014-07-24 06:16:00,
2014-07-24 02:21:00,61.0,61.0,30.04,North,360,1.0,4.0,100,0.00,,---,0.02,VWS V14.01,2014-07-24 06:21:00,
2014-07-24 02:26:00,61.0,60.7,30.03,North,360,2.0,6.0,99,0.00,,---,0.02,VWS V14.01,2014-07-24 06:26:00,
2014-07-24 02:31:00,61.0,60.2,30.03,NNE,22,2.0,6.0,97,0.00,,---,0.02,VWS V14.01,2014-07-24 06:31:00,
2014-07-24 02:36:00,60.0,59.2,30.03,NE,45,3.0,4.0,97,0.00,,---,0.02,VWS V14.01,2014-07-24 06:36:00,
2014-07-24 02:41:00,60.0,58.9,30.03,NNE,22,3.0,5.0,96,0.00,,---,0.02,VWS V14.01,2014-07-24 06:41:00,
2014-07-24 02:46:00,60.0,58.9,30.03,East,90,0.0,4.0,96,0.00,,---,0.02,VWS V14.01,2014-07-24 06:46:00,
2014-07-24 02:51:00,60.0,58.6,30.03,East,90,0.0,3.0,95,0.00,,---,0.02,VWS V14.01,2014-07-24 06:51:00,
2014-07-24 02:56:00,60.0,58.6,30.03,North,360,1.0,3.0,95,0.00,,---,0.02,VWS V14.01,2014-07-24 06:56:00,
2014-07-24 03:01:00,60.0,58.6,30.03,NW,315,3.0,6.0,95,0.00,,---,0.02,VWS V14.01,2014-07-24 07:01:00,
2014-07-24 03:06:00,60.0,58.6,30.04,North,360,0.0,2.0,95,0.00,,---,0.02,VWS V14.01,2014-07-24 07:06:00,
2014-07-24 03:12:00,60.0,58.6,30.04,North,360,0.0,3.0,95,0.00,,---,0.02,VWS V14.01,2014-07-24 07:12:00,
2014-07-24 03:17:00,60.0,58.6,30.04,ENE,67,0.0,4.0,95,0.00,,---,0.02,VWS V14.01,2014-07-24 07:17:00,
2014-07-24 03:22:00,60.0,58.6,30.04,NNE,22,1.0,5.0,95,0.00,,---,0.02,VWS V14.01,2014-07-24 07:22:00,
2014-07-24 03:27:00,60.0,58.6,30.04,ESE,112,0.0,5.0,95,0.00,,---,0.02,VWS V14.01,2014-07-24 07:27:00,
2014-07-24 03:32:00,60.0,58.0,30.04,NNW,337,4.0,5.0,93,0.00,,---,0.02,VWS V14.01,2014-07-24 07:32:00,
2014-07-24 03:37:00,60.0,57.7,30.04,NNE,22,4.0,8.0,92,0.00,,---,0.02,VWS V14.01,2014-07-24 07:37:00,
2014-07-24 03:42:00,60.0,57.4,30.04,North,360,4.0,7.0,91,0.00,,---,0.02,VWS V14.01,2014-07-24 07:42:00,
2014-07-24 03:47:00,60.0,57.1,30.04,North,360,0.0,8.0,90,0.00,,---,0.02,VWS V14.01,2014-07-24 07:47:00,
2014-07-24 03:52:00,60.0,57.1,30.04,North,360,2.0,8.0,90,0.00,,---,0.02,VWS V14.01,2014-07-24 07:52:00,
2014-07-24 03:57:00,60.0,57.4,30.04,NNE,22,0.0,6.0,91,0.00,,---,0.02,VWS V14.01,2014-07-24 07:57:00,
2014-07-24 04:02:00,60.0,57.7,30.04,ENE,67,0.0,4.0,92,0.00,,---,0.02,VWS V14.01,2014-07-24 08:02:00,
2014-07-24 04:07:00,60.0,57.7,30.04,East,90,2.0,5.0,92,0.00,,---,0.02,VWS V14.01,2014-07-24 08:07:00,
2014-07-24 04:12:00,60.0,57.7,30.04,NW,315,4.0,5.0,92,0.00,,---,0.02,VWS V14.01,2014-07-24 08:12:00,
2014-07-24 04:18:00,59.0,56.7,30.03,NNW,337,4.0,4.0,92,0.00,,---,0.02,VWS V14.01,2014-07-24 08:18:00,
2014-07-24 04:23:00,59.0,56.7,30.03,WNW,292,0.0,9.0,92,0.00,,---,0.02,VWS V14.01,2014-07-24 08:23:00,
2014-07-24 04:28:00,59.0,57.0,30.03,North,360,2.0,7.0,93,0.00,,---,0.02,VWS V14.01,2014-07-24 08:28:00,
2014-07-24 04:33:00,59.0,57.0,30.03,North,360,1.0,6.0,93,0.00,,---,0.02,VWS V14.01,2014-07-24 08:33:00,
2014-07-24 04:38:00,59.0,57.3,30.03,NNE,22,2.0,7.0,94,0.00,,---,0.02,VWS V14.01,2014-07-24 08:38:00,
2014-07-24 04:43:00,59.0,57.3,30.03,North,360,4.0,8.0,94,0.00,,---,0.02,VWS V14.01,2014-07-24 08:43:00,
2014-07-24 04:48:00,59.0,57.3,30.03,East,90,4.0,7.0,94,0.00,,---,0.02,VWS V14.01,2014-07-24 08:48:00,
2014-07-24 04:53:00,59.0,57.3,30.03,NE,45,3.0,8.0,94,0.00,,---,0.02,VWS V14.01,2014-07-24 08:53:00,
2014-07-24 04:58:00,58.0,56.3,30.03,NNE,22,2.0,10.0,94,0.00,,---,0.02,VWS V14.01,2014-07-24 08:58:00,
2014-07-24 05:03:00,58.0,56.3,30.03,NNE,22,4.0,6.0,94,0.00,,---,0.02,VWS V14.01,2014-07-24 09:03:00,
2014-07-24 05:08:00,58.0,56.9,30.03,North,360,2.0,8.0,96,0.00,,---,0.02,VWS V14.01,2014-07-24 09:08:00,
2014-07-24 05:13:00,57.0,55.9,30.03,NNE,22,6.0,7.0,96,0.00,,---,0.02,VWS V14.01,2014-07-24 09:13:00,
2014-07-24 05:18:00,57.0,56.4,30.03,North,360,2.0,8.0,98,0.00,,---,0.02,VWS V14.01,2014-07-24 09:18:00,
2014-07-24 05:24:00,57.0,56.7,30.03,North,360,3.0,7.0,99,0.00,,---,0.02,VWS V14.01,2014-07-24 09:24:00,
2014-07-24 05:29:00,57.0,57.0,30.04,North,360,7.0,10.0,100,0.00,,---,0.02,VWS V14.01,2014-07-24 09:29:00,
2014-07-24 05:34:00,57.0,57.0,30.04,NNE,22,8.0,8.0,100,0.00,,---,0.02,VWS V14.01,2014-07-24 09:34:00,
2014-07-24 05:39:00,56.0,56.0,30.04,North,360,3.0,10.0,100,0.00,,---,0.02,VWS V14.01,2014-07-24 09:39:00,
2014-07-24 05:44:00,56.0,56.0,30.04,North,360,4.0,10.0,100,0.00,,---,0.02,VWS V14.01,2014-07-24 09:44:00,
2014-07-24 05:49:00,56.0,56.0,30.04,NNE,22,3.0,13.0,100,0.00,,---,0.02,VWS V14.01,2014-07-24 09:49:00,
2014-07-24 05:54:00,56.0,56.0,30.04,NE,45,4.0,11.0,100,0.00,,---,0.02,VWS V14.01,2014-07-24 09:54:00,
2014-07-24 05:59:00,56.0,56.0,30.04,NNW,337,5.0,10.0,100,0.00,,---,0.02,VWS V14.01,2014-07-24 09:59:00,
2014-07-24 06:04:00,56.0,56.0,30.04,North,360,6.0,8.0,100,0.00,,---,0.02,VWS V14.01,2014-07-24 10:04:00,
2014-07-24 06:09:00,56.0,56.0,30.05,North,360,3.0,10.0,100,0.00,,---,0.02,VWS V14.01,2014-07-24 10:09:00,
2014-07-24 06:14:00,56.0,56.0,30.05,NNE,22,8.0,11.0,100,0.00,,---,0.02,VWS V14.01,2014-07-24 10:14:00,
2014-07-24 06:19:00,56.0,56.0,30.05,NNE,22,5.0,13.0,100,0.00,,---,0.02,VWS V14.01,2014-07-24 10:19:00,
2014-07-24 06:24:00,56.0,56.0,30.05,North,360,4.0,15.0,100,0.00,,---,0.02,VWS V14.01,2014-07-24 10:24:00,
2014-07-24 06:29:00,56.0,56.0,30.05,North,360,5.0,9.0,100,0.00,,---,0.02,VWS V14.01,2014-07-24 10:29:00,
2014-07-24 06:34:00,56.0,56.0,30.05,North,360,6.0,10.0,100,0.00,,---,0.02,VWS V14.01,2014-07-24 10:34:00,
2014-07-24 06:39:00,56.0,56.0,30.05,North,360,6.0,10.0,100,0.00,,---,0.02,VWS V14.01,2014-07-24 10:39:00,
2014-07-24 06:44:00,56.0,56.0,30.05,NNE,22,7.0,8.0,100,0.00,,---,0.02,VWS V14.01,2014-07-24 10:44:00,
2014-07-24 06:49:00,56.0,56.0,30.06,North,360,2.0,8.0,100,0.00,,---,0.02,VWS V14.01,2014-07-24 10:49:00,
2014-07-24 06:54:00,55.0,55.0,30.06,North,360,3.0,9.0,100,0.00,,---,0.02,VWS V14.01,2014-07-24 10:54:00,
2014-07-24 06:59:00,55.0,55.0,30.06,North,360,4.0,8.0,100,0.00,,---,0.02,VWS V14.01,2014-07-24 10:59:00,
2014-07-24 07:04:00,55.0,55.0,30.06,NNE,22,4.0,6.0,100,0.00,,---,0.02,VWS V14.01,2014-07-24 11:04:00,
2014-07-24 07:09:00,55.0,55.0,30.06,NNE,22,4.0,7.0,100,0.00,,---,0.02,VWS V14.01,2014-07-24 11:09:00,
2014-07-24 07:14:00,55.0,55.0,30.06,North,360,4.0,9.0,100,0.00,,---,0.02,VWS V14.01,2014-07-24 11:14:00,
2014-07-24 07:19:00,56.0,56.0,30.06,North,360,5.0,8.0,100,0.00,,---,0.02,VWS V14.01,2014-07-24 11:19:00,
2014-07-24 07:24:00,56.0,56.0,30.06,NNE,22,3.0,7.0,100,0.00,,---,0.02,VWS V14.01,2014-07-24 11:24:00,
2014-07-24 07:29:00,56.0,56.0,30.07,NNE,22,4.0,8.0,100,0.00,,---,0.02,VWS V14.01,2014-07-24 11:29:00,
2014-07-24 07:34:00,56.0,56.0,30.07,North,360,3.0,10.0,100,0.00,,---,0.02,VWS V14.01,2014-07-24 11:34:00,
2014-07-24 07:39:00,56.0,56.0,30.07,NNE,22,3.0,10.0,100,0.00,,---,0.02,VWS V14.01,2014-07-24 11:39:00,
2014-07-24 07:44:00,56.0,56.0,30.07,North,360,6.0,11.0,100,0.00,,---,0.02,VWS V14.01,2014-07-24 11:44:00,
2014-07-24 07:49:00,57.0,57.0,30.07,North,360,8.0,12.0,100,0.00,,---,0.02,VWS V14.01,2014-07-24 11:49:00,
2014-07-24 07:54:00,57.0,57.0,30.07,NNE,22,3.0,8.0,100,0.00,,---,0.02,VWS V14.01,2014-07-24 11:54:00,
2014-07-24 07:59:00,57.0,57.0,30.07,North,360,5.0,11.0,100,0.00,,---,0.02,VWS V14.01,2014-07-24 11:59:00,
2014-07-24 08:04:00,57.0,57.0,30.07,NNE,22,4.0,10.0,100,0.00,,---,0.02,VWS V14.01,2014-07-24 12:04:00,
2014-07-24 08:09:00,57.0,57.0,30.07,North,360,6.0,11.0,100,0.00,,---,0.02,VWS V14.01,2014-07-24 12:09:00,
2014-07-24 08:14:00,58.0,58.0,30.07,North,360,6.0,9.0,100,0.00,,---,0.02,VWS V14.01,2014-07-24 12:14:00,